Lynchburg, VA

9:47 PM EST on November 16, 2019 (GMT -0500)
Lynchburg Regional-Glenn

Weather History for KLYH - September, 2019

Change the Weather History Date:

Friday, September 13, 2019

  Actual Average Record
Temperature  
Mean Temperature 71 °F 68 °F  
Max Temperature 75 °F 79 °F 96 °F (1936)
Min Temperature 67 °F 57 °F 42 °F (1917)
Degree Days  
Heating Degree Days 0 1  
Month to date heating degree days 0 6  
Since 1 July heating degree days 0 9  
Cooling Degree Days 6 4  
Month to date cooling degree days 156 74  
Year to date cooling degree days 1371 972  
Growing Degree Days 20 (Base 50)    
Moisture  
Dew Point 69 °F    
Average Humidity 90    
Maximum Humidity 100    
Minimum Humidity 79    
Precipitation  
Precipitation 0.06 in 0.13 in 1.74 in (1944)
Month to date precipitation 0.06 1.70  
Year to date precipitation 27.64 29.63  
Snow  
Snow 0.00 in - - ()
Month to date snowfall 0.0  
Since 1 July snowfall 0.0  
Since 1 September snowfall 0.0  
Snow Depth 0.00 in    
Sea Level Pressure  
Sea Level Pressure 30.28 in    
Wind  
Wind Speed 7 mph (NE)    
Max Wind Speed 14 mph    
Max Gust Speed 19 mph    
Visibility 6 miles    
Events Rain    
T = Trace of Precipitation, MM = Missing Value Source: NWS Daily Summary

Daily Weather History Graph

Daily Weather History Graph

Search for Another Location

Airport or City:

Astronomy

Sep. 13, 2019 Rise Set
Actual Time 6:56 AM EDT 7:27 PM EDT
Civil Twilight 6:30 AM EDT 7:54 PM EDT
Nautical Twilight 5:59 AM EDT 8:24 PM EDT
Astronomical Twilight 5:28 AM EDT 8:56 PM EDT
Moon 7:39 PM EDT (9/13) 6:14 AM EDT (9/13)
Length of Visible Light 13h 23m
Length of Day
12h 30m
Full, 100% of the Moon is Illuminated
Sep 13
Full
Sep 14
Full
Sep 21
Last Quarter
Sep 28
New
Oct 5
First Quarter

Hourly Weather History & Observations

Time (EDT) Temp. Dew Point Humidity Pressure Visibility Wind Dir Wind Speed Gust Speed Precip Events Conditions
12:54 AM 75.0 °F 70.0 °F 84% 30.12 in 10.0 mi NNE 8.1 mph - N/A   Clear
2:54 AM 75.0 °F 68.0 °F 79% 30.15 in 10.0 mi NNE 9.2 mph - N/A   Clear
3:54 AM 73.0 °F 68.0 °F 84% 30.16 in 10.0 mi NE 8.1 mph - N/A   Clear
4:54 AM 73.0 °F 68.0 °F 84% 30.17 in 10.0 mi NNE 10.4 mph - N/A   Clear
5:37 AM 72.0 °F 69.1 °F 91% 30.23 in 10.0 mi NNE 13.8 mph - N/A   Mostly Cloudy
5:54 AM 73.0 °F 69.1 °F 87% 30.20 in 10.0 mi NE 12.7 mph - N/A   Overcast
6:54 AM 72.0 °F 70.0 °F 93% 30.23 in 4.0 mi NE 8.1 mph - N/A   Overcast
7:30 AM 72.0 °F 71.1 °F 97% 30.27 in 1.8 mi NE 6.9 mph - N/A   Overcast
7:47 AM 72.0 °F 71.1 °F 97% 30.27 in 2.5 mi NE 6.9 mph - N/A   Overcast
7:54 AM 72.0 °F 71.1 °F 97% 30.25 in 3.0 mi NE 8.1 mph - N/A   Overcast
8:54 AM 72.0 °F 71.1 °F 97% 30.26 in 4.0 mi NE 6.9 mph - N/A   Overcast
9:54 AM 72.0 °F 71.1 °F 97% 30.27 in 5.0 mi ENE 9.2 mph - N/A   Overcast
10:54 AM 72.0 °F 71.1 °F 97% 30.29 in 3.0 mi NE 9.2 mph - N/A   Overcast
12:54 PM 73.9 °F 71.1 °F 91% 30.30 in 10.0 mi ENE 4.6 mph - N/A   Overcast
1:54 PM 72.0 °F 71.1 °F 97% 30.30 in 4.0 mi ENE 6.9 mph - 0.01 in   Overcast
2:54 PM 71.1 °F 70.0 °F 96% 30.30 in 10.0 mi ENE 6.9 mph - N/A   Overcast
3:06 PM 71.1 °F 70.0 °F 96% 30.31 in 9.0 mi ENE 8.1 mph - N/A   Overcast
3:45 PM 71.1 °F 69.1 °F 93% 30.31 in 3.0 mi ENE 9.2 mph 17.3 mph 0.00 in   Overcast
3:54 PM 70.0 °F 69.1 °F 97% 30.29 in 2.5 mi ENE 6.9 mph - 0.00 in   Overcast
4:54 PM 70.0 °F 69.1 °F 97% 30.29 in 2.5 mi ENE 5.8 mph - N/A   Overcast
5:54 PM 69.1 °F 68.0 °F 96% 30.30 in 2.5 mi NE 8.1 mph - 0.02 in Rain Light Rain
6:54 PM 69.1 °F 68.0 °F 96% 30.30 in 1.8 mi ENE 8.1 mph - 0.00 in   Overcast
7:54 PM 69.1 °F 68.0 °F 96% 30.32 in 2.0 mi Variable 6.9 mph - 0.02 in   Overcast
8:54 PM 69.1 °F 68.0 °F 96% 30.34 in 4.0 mi Variable 3.5 mph - 0.00 in Rain Light Rain
9:39 PM 68.0 °F 66.9 °F 96% 30.37 in 10.0 mi East 4.6 mph - 0.01 in   Overcast
9:54 PM 68.0 °F 66.0 °F 93% 30.34 in 10.0 mi East 8.1 mph - 0.01 in   Overcast
10:20 PM 68.0 °F 66.0 °F 93% 30.36 in 10.0 mi ENE 5.8 mph - N/A   Overcast
10:54 PM 68.0 °F 66.0 °F 93% 30.34 in 10.0 mi Variable 3.5 mph - N/A   Overcast
11:31 PM 66.9 °F 64.9 °F 93% 30.36 in 10.0 mi Variable 3.5 mph - N/A   Overcast
11:44 PM 66.9 °F 64.9 °F 93% 30.36 in 10.0 mi NE 4.6 mph - N/A   Overcast
11:54 PM 66.9 °F 64.9 °F 93% 30.34 in 10.0 mi NE 3.5 mph - N/A   Overcast